Location: Eppenbrunn
(49.1158°N, 7.5601°E)
Time: 16:44:28
(UTC+00:00)

IGS 5A - Pass Details

Date: 20 August 2020
Orbit: 583 x 588 km, 97.6° (Epoch: 26 September)

Event Time Altitude Azimuth Distance (km) Brightness Sun altitude
Exits shadow 19:28:01 11° 116° (ESE) 1,837 5.3 -8.6°
Maximum altitude 19:31:08 24° 64° (ENE) 1,236 4.8 -9.0°
Drops below altitude 10° 19:34:30 10° 11° (N) 1,927 6.4 -9.5°
Sets 19:36:58 0° 358° (N) 2,832 7.5 -9.9°
